Regional Weather Roundup
Issued by NWS

Home | Current Version | Previous Version | Text Only | Print | Product List | Glossary On
Versions: 1 2 3 4 5 6 7 8 9 10 11 12 13 14 15 16 17 18 19 20 21 22 23 24 25 26 27 28 29 30 31 32 33 34 35 36 37 38 39 40 41 42 43 44 45 46 47 48 49 50
000
ASUS46 KPQR 010210
RWROR

OREGON REGIONAL WEATHER ROUNDUP
NATIONAL WEATHER SERVICE PORTLAND OR
700 PM PDT TUE JUN 30 2015

NOTE: "FAIR" INDICATES FEW OR NO CLOUDS BELOW 12,000 FEET WITH
NO SIGNIFICANT WEATHER AND/OR OBSTRUCTIONS TO VISIBILITY.

ORZ001>013-010300-
NORTHWEST OREGON


CITY           SKY/WX    TMP DP  RH WIND       PRES   REMARKS
ASTORIA        SUNNY     65  57  75 NW16      30.09R
PORTLAND       SUNNY     89  60  37 NW18      29.96S
VANCOUVER WA   SUNNY     88  57  34 NW12G21   29.96S
SCAPPOOSE      SUNNY     89  56  32 NW8G17    29.97S
HILLSBORO      SUNNY     88  55  32 NW17      29.97S
AURORA         SUNNY     91  55  29 NE12      29.97S
MCMINNVILLE    SUNNY     91  55  29 NE14      29.97S
SALEM          SUNNY     93  52  24 N15       29.94F HX  90
CORVALLIS      SUNNY     90  59  35 NW13G18   29.97S
EUGENE         SUNNY     93  52  24 N18       29.95F HX  90
$$

ORZ021-028-010300-
SOUTHWEST OREGON


CITY           SKY/WX    TMP DP  RH WIND       PRES   REMARKS
NORTH BEND     CLOUDY    59  57  94 N28       30.02S
BROOKINGS      SUNNY     62  60  93 S6        29.90S
ROSEBURG       SUNNY     95  51  22 N13G21    29.92F HX  92
SEXTON SUMMIT  SUNNY     78  46  32 VRB6      30.09F
MEDFORD        SUNNY     98  52  21 N12       29.89R HX  95
$$

ORZ014>016-041-010300-
COLUMBIA GORGE


CITY           SKY/WX    TMP DP  RH WIND       PRES   REMARKS
TROUTDALE      SUNNY     90  58  33 VRB6      29.94S
THE DALLES     SUNNY     95  58  28 W18G25    29.85F HX  94
$$

ORZ029>031-041-044-049-050-061>064-502-503-505>511-010300-
EASTERN OREGON


CITY           SKY/WX    TMP DP  RH WIND       PRES   REMARKS
REDMOND        SUNNY     91  41  17 N10       30.02S
BEND             N/A    N/A N/A N/A MISG        N/A
PRINEVILLE     SUNNY     91  36  14 NW13G18   30.03S
KLAMATH FALLS  SUNNY     91  46  21 NW16      30.05R
LAKEVIEW       SUNNY     91  39  16 W10       30.08R
HERMISTON      SUNNY     98  41  14 SW5       29.85F HX  93
PENDLETON      SUNNY     95  35  12 NW5       29.91F HX  90
MEACHAM        SUNNY     82  48  30 VRB3      30.08S
LA GRANDE      SUNNY     90  50  25 N8        29.99S
BAKER CITY     LGT RAIN  86  51  29 N20       30.02S
BURNS          SUNNY     92  43  18 NW16      30.03R
ROME             N/A     97  38  13 S10       29.98R HX  92
ONTARIO        SUNNY    100  50  18 N14       29.85S HX  97
$$


USA.gov is the U.S. government's official web portal to all federal, state and local government web resources and services.